Probability
0 0 0 0 0 0 0 0 0 0 0 0 0 0 1 2 1 0 0 0 0 0 0 0 0 1 2 1 1 1 0 0 0 0 0 0 0 0 0 0 0 0 0
0 0 0 0 0 0 0 0 0 0 0 0 0 0 1 1 1 0 0 0 0 0 0 0 1 1 2 1 2 1 0 0 0 0 0 0 0 0 0 0 0 0 0
0 0 0 0 0 0 0 0 0 0 0 0 0 0 1 1 1 0 0 0 0 0 0 1 1 1 1 1 2 1 0 0 0 0 0 0 0 1 1 1 1 1 0
0 0 0 0 0 0 0 0 0 0 0 0 0 0 1 2 2 1 0 0 0 0 0 0 1 1 2 2 1 0 0 0 0 0 0 0 0 1 2 2 2 2 1
0 0 0 0 0 0 0 0 0 0 0 0 0 0 1 1 1 1 0 0 0 0 0 0 0 1 3 3 2 1 1 1 1 1 0 0 0 1 2 2 2 2 2
0 0 0 0 0 0 0 0 0 0 0 0 0 0 0 0 0 0 0 0 0 0 0 0 0 1 2 3 3 3 2 3 2 1 0 0 0 0 1 1 1 1 1
0 1 2 1 1 0 0 0 0 0 0 0 0 0 0 0 0 0 0 0 0 0 0 0 0 0 1 3 3 3 3 3 2 1 0 0 0 0 0 0 0 0 0
1 2 3 3 2 1 0 0 0 0 0 0 0 0 0 0 0 0 0 0 0 0 0 0 0 0 1 2 2 3 3 3 2 1 0 0 0 0 0 0 0 0 0
3 3 3 3 2 1 0 0 0 0 0 0 0 0 0 0 0 0 0 0 0 0 0 0 0 0 0 1 1 1 2 2 1 1 0 0 0 0 0 0 0 0 0
2 2 3 3 2 1 0 0 0 0 0 0 0 0 0 0 0 0 0 0 0 0 0 0 0 0 0 0 0 0 0 0 0 0 0 0 0 0 0 0 0 0 0
1 1 1 2 2 1 0 0 0 0 0 0 0 0 0 0 0 0 0 0 0 0 0 0 0 0 0 0 0 0 0 0 0 0 0 0 0 0 0 0 0 0 0
0 0 0 1 1 0 0 0 0 0 0 0 0 0 0 0 0 0 0 0 0 0 0 0 0 0 0 0 0 0 0 0 0 0 0 0 0 0 0 0 0 0 0
0 0 0 0 0 0 0 0 0 0 0 0 0 0 0 0 0 0 0 0 0 0 0 0 0 0 0 0 0 0 0 0 0 0 0 0 0 0 0 0 0 0 0
0 0 0 0 0 0 0 0 0 0 0 0 0 0 0 0 0 0 0 0 0 0 0 0 0 0 0 0 0 0 0 0 0 0 0 0 0 0 0 0 0 0 0
0 0 0 0 0 0 0 0 0 0 0 0 0 0 0 0 0 0 0 0 0 0 0 0 0 0 0 0 0 0 0 0 0 0 0 0 0 0 0 0 0 0 0
0 0 0 0 0 0 0 0 0 0 0 0 0 0 0 0 0 0 0 0 0 0 0 0 0 0 0 0 0 0 0 0 0 0 0 0 0 0 0 0 0 0 0
0 0 0 0 0 0 0 0 0 0 0 0 0 0 0 0 0 0 0 0 0 0 0 0 0 0 0 0 0 0 0 0 0 0 0 0 0 0 0 0 0 0 0
0 0 0 0 0 0 0 0 0 0 0 0 0 0 0 0 0 0 0 0 0 0 0 0 0 0 0 0 0 0 0 0 0 0 0 0 0 0 0 0 0 0 0
0 0 0 0 0 0 0 0 0 0 0 0 0 0 0 0 0 0 0 0 0 0 0 0 0 0 0 0 0 0 0 0 0 0 0 0 0 0 0 0 0 0 0
0 0 0 0 0 0 0 0 0 0 0 0 0 0 0 0 0 0 0 0 0 0 0 0 0 0 0 0 0 0 0 0 0 0 0 0 0 0 0 0 0 0 0
0 0 0 0 0 0 0 0 0 0 0 0 0 0 0 0 0 0 0 0 0 0 0 0 0 0 0 0 0 0 0 0 0 0 0 0 0 0 0 0 0 0 0
0 0 0 0 0 0 0 0 0 0 0 0 0 0 0 0 0 0 0 0 0 0 0 0 0 0 0 0 0 0 0 0 0 0 0 0 0 0 0 0 0 0 0
0 0 0 0 0 0 0 0 0 0 0 0 0 0 0 0 0 0 0 0 0 0 0 0 0 0 0 0 0 0 0 0 0 0 0 0 0 0 0 0 0 0 0
0 0 0 0 0 0 0 0 0 0 0 0 0 0 0 0 0 0 0 0 0 0 0 0 0 0 0 0 0 0 0 0 0 0 0 0 0 0 0 0 0 0 0
0 0 0 0 0 0 0 0 0 0 0 0 0 0 0 0 0 0 0 0 0 0 0 0 0 0 0 0 0 0 0 0 0 0 0 0 0 0 0 0 0 0 0
0 0 0 0 0 0 0 0 0 0 0 0 0 0 0 0 0 0 0 0 0 0 0 0 0 0 0 0 0 0 0 0 0 0 0 0 0 0 0 0 0 0 0
Wind_Speed
2 2 2 2 1 1 1 1 1 2 3 2 2 2 2 2 2 2 2 5 5 4 3 3 4 4 4 4 3 3 3 4 4 4 4 5 4 4 5 5 4 4 4
2 2 2 2 1 1 1 1 2 2 2 2 2 2 1 1 1 1 1 2 4 4 4 3 4 4 4 4 3 3 3 3 3 4 4 4 4 4 4 5 5 4 4
3 2 2 2 1 1 1 2 2 2 2 2 2 2 1 1 1 1 1 1 1 3 4 3 3 4 4 3 3 3 3 4 4 4 4 4 4 4 4 5 5 4 4
3 2 2 1 1 2 2 2 2 2 2 1 1 1 1 0 1 1 1 1 1 1 2 4 4 3 3 2 2 2 2 2 3 3 4 4 4 4 4 5 5 5 4
3 3 2 1 1 1 1 2 2 1 2 1 1 0 0 0 0 1 1 1 1 1 1 3 4 4 4 3 2 2 2 2 2 3 3 4 4 4 4 5 5 5 5
3 3 2 1 2 2 1 2 2 1 1 1 1 0 0 0 0 0 0 0 0 0 1 1 1 3 4 4 3 3 3 2 2 3 3 4 4 4 5 5 5 5 5
3 3 3 2 2 2 2 2 2 2 1 1 1 1 1 0 1 1 0 0 0 0 0 0 0 1 2 5 5 4 3 3 3 3 4 4 5 5 5 5 5 6 6
2 3 3 3 2 2 2 2 2 1 1 1 1 1 1 2 1 1 1 1 1 1 1 1 1 1 1 1 3 5 4 3 3 4 5 5 5 5 6 6 6 6 6
2 2 3 3 3 2 2 2 2 3 2 1 1 2 2 2 2 1 1 1 1 1 1 1 2 2 2 1 2 4 5 5 5 4 5 5 6 6 6 7 7 7 7
1 1 2 2 3 2 2 2 2 1 3 2 1 1 1 2 2 1 1 1 1 2 2 2 2 2 2 2 2 4 5 5 5 5 6 6 6 7 7 7 7 7 7
1 1 1 1 2 2 2 2 2 2 2 2 2 1 1 0 1 2 3 2 2 2 2 3 2 2 2 2 2 4 5 5 5 6 6 6 7 7 7 7 8 8 8
0 0 1 1 1 1 2 2 2 2 2 2 2 2 2 2 2 2 3 3 3 3 2 2 3 2 2 2 3 5 5 5 6 6 6 7 7 8 8 8 8 8 8
1 1 1 1 1 1 1 1 1 2 2 3 3 2 2 2 1 2 2 2 3 2 2 2 3 3 2 2 3 5 5 6 6 6 7 7 7 7 8 8 9 9 9
1 1 1 1 1 1 1 1 1 1 1 2 2 2 2 2 2 2 2 2 3 3 2 3 2 3 3 3 4 5 4 6 7 7 7 7 7 7 8 8 8 9 9
1 1 1 0 1 1 1 1 1 1 1 1 2 2 2 2 2 2 2 3 3 4 5 3 2 3 3 3 4 3 4 6 7 7 7 7 8 7 8 8 8 9 8
1 1 1 1 1 1 1 1 0 1 1 1 1 1 2 2 2 2 2 2 3 4 5 3 3 3 3 3 4 4 4 6 7 7 7 7 7 7 8 8 8 8 8
1 1 1 1 1 1 1 1 1 1 2 2 1 2 2 2 2 2 2 2 3 3 5 4 3 3 3 3 3 3 3 4 4 7 7 7 7 7 8 8 8 8 8
1 1 1 1 2 2 2 2 2 2 2 2 3 3 3 2 3 2 2 3 3 3 4 5 4 3 3 3 3 3 4 3 3 6 7 7 7 8 8 8 7 7 7
1 1 1 2 2 2 2 3 3 3 3 3 3 4 4 3 4 3 3 3 3 3 3 4 4 3 2 2 3 3 4 3 3 4 6 6 7 7 7 7 7 8 7
2 2 2 2 2 3 3 3 3 3 3 3 3 4 4 4 4 4 3 3 3 3 3 3 4 3 3 2 2 3 4 3 3 3 4 5 6 7 7 7 7 7 7
2 2 2 2 2 3 3 3 3 3 2 3 3 3 3 4 5 4 3 3 3 3 2 3 4 3 3 2 3 3 4 4 3 2 2 3 3 3 4 6 7 7 7
2 2 3 3 3 3 4 5 3 3 3 3 3 3 3 3 4 5 6 6 5 4 4 3 4 5 5 4 3 3 4 3 4 2 2 4 3 4 4 4 7 8 8
2 2 3 3 3 4 5 5 4 2 3 3 3 3 3 3 3 3 5 6 5 6 7 5 6 6 6 5 4 5 5 5 5 3 2 5 3 5 4 5 9 8 7
2 3 3 3 3 4 5 5 4 2 2 3 3 3 3 3 3 3 3 4 4 4 5 5 6 6 6 5 5 6 6 5 4 2 2 4 3 4 4 4 7 7 7
2 3 3 3 3 4 5 4 3 2 2 3 3 3 3 4 5 5 3 4 4 4 4 6 7 7 9 9 6 3 3 4 4 3 2 2 2 3 3 3 4 6 6
3 2 3 2 3 4 5 5 4 2 2 2 2 3 4 5 6 6 3 3 5 5 3 4 4 6 6 6 7 5 4 4 3 3 2 1 1 2 3 3 2 2 3
Wind_Direction
137 133 129 116 110 103 106 94 80 81 79 69 69 75 80 74 68 51 22 34 38 50 67 69 74 73 72 78 75 73 78 74 56 45 41 33 24 24 21 15 15 21 20
140 144 139 133 130 129 132 127 114 102 81 78 65 60 66 78 71 62 39 22 25 30 44 54 65 64 56 67 68 61 58 66 53 37 30 26 22 15 16 10 7 6 4
139 146 142 144 157 151 129 106 97 97 91 76 62 48 60 61 79 78 57 33 6 14 23 34 40 49 40 59 66 58 45 48 46 32 23 19 16 9 1 358 356 351 346
147 142 138 151 162 146 136 126 117 110 103 96 69 27 38 50 74 77 77 52 29 9 5 22 15 23 23 27 33 28 23 40 39 27 15 6 0 355 351 348 346 341 333
153 145 139 143 140 132 132 137 112 125 131 127 112 52 58 37 38 45 72 61 52 39 18 8 6 4 1 342 332 333 340 1 7 3 359 357 351 343 337 334 335 338 334
152 139 131 127 129 121 112 127 126 116 137 149 105 17 320 253 214 169 251 352 82 59 45 21 356 335 343 335 325 306 313 333 334 339 344 344 344 337 327 322 323 325 326
155 148 144 141 138 140 145 133 133 130 125 123 92 4 341 326 200 201 236 309 279 240 76 358 330 325 325 326 330 325 305 310 321 328 329 328 327 323 321 316 314 314 318
155 152 150 153 150 138 123 121 121 132 146 132 130 124 331 326 316 281 241 237 259 289 289 279 266 282 305 304 327 331 321 308 316 314 313 314 314 312 312 312 311 306 309
156 162 161 156 155 152 154 157 153 150 171 204 153 154 169 227 286 287 255 243 250 264 266 262 257 258 278 285 290 321 327 319 316 315 313 312 309 306 305 307 308 307 302
146 139 148 156 159 161 161 176 168 169 162 185 227 224 194 172 181 277 292 282 266 251 253 274 275 269 263 273 288 315 318 316 313 312 311 310 310 310 307 307 309 310 309
94 112 136 148 163 163 167 175 171 169 177 187 192 193 222 216 181 190 251 267 287 259 249 252 249 261 262 258 263 291 306 309 313 312 310 307 307 309 309 306 305 307 308
267 134 138 158 160 156 175 188 183 184 193 193 197 190 194 197 196 195 231 249 265 268 259 251 240 239 253 252 269 295 302 305 307 307 304 304 305 307 307 306 306 307 305
292 256 205 196 176 173 175 175 181 204 206 201 204 218 224 237 207 202 222 250 266 280 259 247 236 235 249 254 264 286 291 294 295 296 297 298 300 303 304 302 302 303 303
235 256 236 207 189 176 171 177 184 216 215 216 222 220 224 235 226 211 205 217 264 275 258 253 250 228 239 249 264 276 272 285 289 289 291 292 294 294 295 296 297 299 300
235 208 203 213 228 197 187 187 198 217 217 229 235 238 242 245 239 232 218 208 214 248 263 254 252 239 241 256 266 257 262 278 284 284 283 285 286 286 288 292 294 297 299
222 194 209 211 237 228 209 191 208 230 217 235 241 244 263 264 268 251 241 234 229 225 251 251 256 263 259 267 275 268 262 281 280 282 282 283 284 286 287 289 292 295 296
212 210 216 217 221 233 217 202 223 224 227 248 256 247 260 272 267 256 251 247 244 235 250 270 270 267 254 258 270 272 270 254 259 277 282 284 286 288 289 290 293 295 294
220 220 227 234 233 233 224 212 226 231 230 244 253 249 253 254 260 262 250 248 250 250 248 268 276 271 261 253 257 270 284 273 258 272 277 284 288 290 291 292 294 296 298
230 224 216 228 239 242 235 228 225 230 240 247 249 248 247 242 250 256 252 247 250 257 248 258 276 276 274 281 280 283 281 267 273 276 276 280 282 287 291 293 295 298 299
222 224 228 232 239 241 239 239 236 236 246 257 258 254 250 242 244 246 248 246 248 253 257 260 268 276 275 281 282 282 288 270 275 289 279 282 285 286 285 289 293 295 296
233 228 226 236 249 242 237 244 249 247 246 256 261 262 263 259 258 254 253 249 243 245 251 258 266 273 269 269 266 271 276 283 274 267 268 274 277 275 278 281 286 286 288
252 236 230 227 240 245 248 245 251 245 248 251 262 269 272 262 267 274 270 265 253 241 240 248 261 262 268 268 272 266 277 284 282 247 265 275 260 263 267 260 275 280 282
247 239 238 232 242 253 249 252 256 245 246 254 260 266 274 275 269 266 276 278 269 257 247 244 253 260 270 271 273 272 266 265 267 260 265 273 259 262 265 270 272 269 276
234 237 244 244 251 255 251 254 255 237 244 257 261 262 267 276 271 279 278 276 266 257 250 245 249 261 266 271 262 264 269 279 280 261 236 268 270 268 278 264 263 268 278
238 239 241 237 246 256 251 251 253 233 246 262 269 275 274 270 275 286 277 271 278 280 275 266 269 275 281 283 281 283 279 281 285 273 249 247 273 297 287 266 259 266 274
235 243 249 243 244 255 252 250 249 234 247 263 273 273 271 276 285 288 270 256 265 278 287 292 284 283 281 279 278 260 253 259 276 277 237 233 257 317 302 285 274 272 274